东方红一号(DFH-1)

导读

DFH-1(东方红一号)是中国于1970年4月24日发射的首颗人造地球卫星,标志着中国迈入太空时代,成为世界上第五个独立研制并发射人造卫星的国家。它重约173千克,运行在近地轨道,主要开展卫星工程试验,探测空间环境,其发射是中国航天事业的重要里程碑,推动了中国航天技术的起步发展。

基本信息
目录编号:
4382
目录名称:
DFH-1
国际标识:
1970-034A
轨道中心:
EARTH
卫星名称:
东方红一号
卫星全名:
--
卫星状态:
在轨 (已飞行20509 天)
发射日期:
1970-04-24 UTC
国别 :
中国 (CN)
星等 :
--
轨道信息
数据来源 国际轨道数据 AOE轨道数据
星历时间 2026-06-18T12:29:06+0800
13小时前
查看轨道信息
2026-06-18T08:00:00+0800
18小时前
查看轨道信息
半长轴 7583.899km 7583.903km
偏心率 0.1031593 0.1031625
轨道倾角 68.426° 68.427°
近地点辐角 339.249° 339.408°
升交点赤经 59.806° 60.187°
平近点角 16.938° 212.630°
近地点 423.412km 423.391km
远地点 1988.112km 1988.141km
周期 109.546分钟 109.547分钟
每日圈数 13.145103 13.145092
详细信息
固有亮度:
7.2
最大亮度:
3.5
卫星平台:
东方红一号
平衡模式:
自旋稳定
覆盖范围:
全球
制造商(研发单位):
中国空间技术研究院
制造商所在国:
中国
使用方式:
暂无
工作目标:
技术验证,并向全球播放东方红乐曲
卫星简介
“东方红一号”是中华人民共和国于1970年4月24日在酒泉卫星发射中心发射升空的第一颗人造卫星,同时也是东方红人造卫星系列的首颗卫星。“东方红一号”的发射成功标志着中华人民共和国成为世界上继苏联、美国、法国和日本之后第五个能够独立发射人造卫星的国家。它虽比苏联发射第一颗人造卫星“斯普特尼克1号”晚了13年,但它的技术超过了前四个国家的第一颗卫星,质量更超过了前四个国家第一颗卫星的总和。
2D轨道图
3D轨道图
轨道高度分析图
轨道倾角分析图
轨道综合分析图
查看轨道综合分析图